Weather History for Jacksonville, FL

Change the Weather History Date:

Monday, December 23, 2013

  Actual Average Record
Temperature  
Mean Temperature 71 °F 54 °F  
Max Temperature 82 °F 65 °F 84 °F (1956)
Min Temperature 59 °F 43 °F 24 °F (1989)
Degree Days  
Heating Degree Days 0 12  
Month to date heating degree days 124 226  
Since 1 July heating degree days 280 399  
Cooling Degree Days 6 1  
Month to date cooling degree days 50 23  
Year to date cooling degree days 2649 2667  
Growing Degree Days 21 (Base 50)    
Moisture  
Dew Point 67 °F    
Average Humidity 81    
Maximum Humidity 100    
Minimum Humidity 62    
Precipitation  
Precipitation T in 0.09 in 1.41 in (1941)
Month to date precipitation 0.68 2.08  
Year to date precipitation 45.04 51.67  
Snow  
Snow 0.00 in 0.00 in 0.80 in (1989)
Month to date snowfall 0.0 0.0  
Since 1 July snowfall 0.0 0.0  
Snow Depth 0.00 in    
Sea Level Pressure  
Sea Level Pressure 30.12 in    
Wind  
Wind Speed 10 mph (SW)    
Max Wind Speed 20 mph    
Max Gust Speed 26 mph    
Visibility 10 miles    
Events Rain    
T = Trace of Precipitation, MM = Missing Value Source: NWS Daily Summary

Daily Weather History Graph

Daily Weather History Graph

Search for Another Location

Airport:

Trip Planner

Search our weather history database for the weather conditions in past years. The results will help you decide how hot, cold, wet, or windy it might be!

Date:

Astronomy

Dec. 23, 2013 Rise Set
Actual Time 7:20 AM EST 5:31 PM EST
Civil Twilight 6:54 AM EST 5:57 PM EST
Nautical Twilight 6:24 AM EST 6:27 PM EST
Astronomical Twilight 5:54 AM EST 6:57 PM EST
Moon 11:16 PM EST (12/23) 11:07 AM EST (12/23)
Length of Visible Light 11h 03m
Length of Day
10h 10m
Waning Gibbous, 68% of the Moon is Illuminated
Dec 23
Waning Gibbous
Dec 25
Last Quarter
Jan 1
New
Jan 7
First Quarter
Jan 15
Full

Hourly Weather History & Observations

Time (EST) Temp. Heat Index Dew Point Humidity Pressure Visibility Wind Dir Wind Speed Gust Speed Precip Events Conditions
12:56 AM 66.9 °F - 66.0 °F 97% 30.13 in 10.0 mi South 4.6 mph - N/A   Partly Cloudy
1:56 AM 70.0 °F - 66.9 °F 90% 30.12 in 10.0 mi South 6.9 mph - N/A   Partly Cloudy
2:56 AM 70.0 °F - 66.9 °F 90% 30.12 in 10.0 mi South 9.2 mph - N/A   Partly Cloudy
3:56 AM 70.0 °F - 66.9 °F 90% 30.12 in 10.0 mi South 10.4 mph - N/A   Partly Cloudy
4:56 AM 69.1 °F - 66.9 °F 93% 30.11 in 10.0 mi South 9.2 mph - N/A   Mostly Cloudy
5:56 AM 68.0 °F - 66.9 °F 96% 30.12 in 10.0 mi South 6.9 mph - N/A   Partly Cloudy
6:50 AM 68.0 °F - 66.2 °F 94% 30.12 in 10.0 mi South 9.2 mph - N/A   Mostly Cloudy
6:56 AM 68.0 °F - 66.9 °F 96% 30.13 in 10.0 mi South 8.1 mph - N/A   Mostly Cloudy
7:14 AM 68.0 °F - 66.9 °F 96% 30.12 in 10.0 mi South 9.2 mph - N/A   Mostly Cloudy
7:56 AM 70.0 °F - 69.1 °F 97% 30.13 in 10.0 mi SSW 9.2 mph - N/A   Mostly Cloudy
8:56 AM 71.1 °F - 69.1 °F 93% 30.14 in 10.0 mi South 9.2 mph - N/A   Overcast
9:18 AM 73.0 °F - 69.1 °F 87% 30.14 in 10.0 mi South 11.5 mph 20.7 mph N/A   Overcast
9:56 AM 73.9 °F - 69.1 °F 85% 30.15 in 10.0 mi SSW 17.3 mph 20.7 mph N/A   Mostly Cloudy
10:29 AM 73.9 °F - 69.1 °F 85% 30.15 in 10.0 mi SW 13.8 mph - N/A   Overcast
10:56 AM 75.9 °F - 69.1 °F 79% 30.15 in 10.0 mi SSW 17.3 mph 21.9 mph N/A   Mostly Cloudy
11:56 AM 79.0 °F - 69.1 °F 72% 30.13 in 10.0 mi SSW 15.0 mph 23.0 mph N/A   Mostly Cloudy
12:56 PM 80.1 °F 82.7 °F 68.0 °F 67% 30.09 in 10.0 mi SSW 16.1 mph 25.3 mph N/A   Mostly Cloudy
1:56 PM 81.0 °F 83.3 °F 66.9 °F 62% 30.08 in 10.0 mi SW 13.8 mph 23.0 mph N/A   Mostly Cloudy
2:03 PM 82.0 °F 84.9 °F 68.0 °F 62% 30.07 in 10.0 mi SW 13.8 mph - N/A   Mostly Cloudy
2:56 PM 81.0 °F 83.3 °F 66.9 °F 62% 30.07 in 10.0 mi SSW 12.7 mph - N/A   Mostly Cloudy
3:56 PM 80.1 °F 82.7 °F 68.0 °F 67% 30.07 in 10.0 mi WSW 5.8 mph - N/A   Mostly Cloudy
4:56 PM 78.1 °F - 69.1 °F 74% 30.08 in 10.0 mi West 8.1 mph - 0.00 in   Mostly Cloudy
5:56 PM 75.0 °F - 70.0 °F 84% 30.10 in 10.0 mi West 8.1 mph - N/A   Mostly Cloudy
6:56 PM 73.0 °F - 70.0 °F 90% 30.10 in 10.0 mi Calm Calm - N/A   Mostly Cloudy
7:56 PM 72.0 °F - 69.1 °F 91% 30.11 in 10.0 mi NW 4.6 mph - N/A   Overcast
8:17 PM 72.0 °F - 69.1 °F 91% 30.11 in 10.0 mi NNW 6.9 mph - N/A   Overcast
8:42 PM 71.1 °F - 69.1 °F 93% 30.11 in 10.0 mi North 3.5 mph - N/A   Overcast
8:56 PM 71.1 °F - 69.1 °F 93% 30.12 in 10.0 mi North 4.6 mph - N/A   Overcast
9:09 PM 71.1 °F - 68.0 °F 90% 30.11 in 10.0 mi North 8.1 mph - N/A   Overcast
9:56 PM 66.0 °F - 64.9 °F 96% 30.12 in 10.0 mi NNW 10.4 mph - 0.00 in Rain Light Rain
10:45 PM 62.1 °F - 62.1 °F 100% 30.13 in 10.0 mi NNW 10.4 mph - 0.00 in   Overcast
10:56 PM 62.1 °F - 61.0 °F 96% 30.14 in 9.0 mi NNW 11.5 mph - 0.00 in   Overcast
11:21 PM 60.1 °F - 57.0 °F 90% 30.15 in 10.0 mi North 9.2 mph - 0.00 in Rain Light Rain
11:56 PM 59.0 °F - 57.0 °F 93% 30.15 in 10.0 mi NNW 11.5 mph - 0.00 in   Overcast